Find Kosmos-1869

NORAD ID: 18214 Int'l Des: 1987-062 Owner: GMS/YUZH Country: SU operational
LEOCIRCULARPOLAR

Current View

Loading 3D Globe...

About Kosmos-1869

Description loading...

Upcoming Passes

Passes for default location (London). Set your location on the main map for personalized predictions.

Altitude History

Loading altitude history...

Two-Line Element Set

1 18214U 87062A 26150.92414081 .00012369 00000-0 33875-3 0 9992
2 18214 82.5090 118.1779 0019263 121.6325 238.6802 15.36988602101916
Epoch: May 30, 2026 • Age: 10 hours

Current Status

Altitude 458.5 km
Velocity 7.65 km/s
Sub-Earth Point 61.50°N, 125.51°E
Launch Date Jul 16, 1987
Age 38.8 years
Type other

Technical Details

Classification Payload
Mass 1936.00 kg
Dry Mass 1936.00 kg
Total Mass 1936.00 kg
Length 5.00 m
Diameter 2.40 m
Span 21.50 m
Shape Cyl + 2 Pan + Ant
Manufacturer YUZH
Bus Type Okean
Phase Status In Orbit
Owner/State GMS/YUZH/SU

Most Searched